FENGYUN 1C DEB

Satellite information

Favourite Embed

Satellite Type and Status

DEBRISIN ORBIT

Key statistics

Satellite FENGYUN 1C DEB at a glance.

Uptime

9715

Days in orbit

Revolutions

≈ 14.4

Per day

Orbit

SSO

Sun Synchronous Orbit

Inclination

100.4

Latest

Satellite identification and parameters

Extended collection of information and parameters for FENGYUN 1C DEB.

Object identification

Identified? True

Debris? True

Object name: FENGYUN 1C DEB

International designator: 1999-025CXM

Object number (NORAD): 32320

Object ID (CCSDS): 32320

Country: PEOPLES REPUBLIC OF CHINA (PRC)

Current information (Y/N): Y

RCS size: SMALL

Orbital parameters

Period: 100.27 minutes

Inclination: 100.3739 deg

SMA: 7149.463 km

Apoapsis: 811.474 km

Periapsis: 731.182 km

RAAN: 201.5727 deg

Eccentricy: 0.0056153

Argument of periapsis: 53.0201 deg

Mean anomaly: 307.61 deg

Mean motion: 14.36126259 rev/day

Mean motion (dot): 0.00003377 rev/day2

B* drag term: 0.0011581 1/REarth

Two-line elements (TLE)

Creation date: Dec. 11, 2025, 7:46 a.m.

Reference frame: TEME

Reference center: EARTH

Epoch: Dec. 10, 2025, 8:46 p.m. UTC

TLE line 0: 0 FENGYUN 1C DEB

TLE line 1: 1 32320U 99025CXM 25344.86531354 .00003377 00000-0 11581-2 0 9996

TLE line 2: 2 32320 100.3739 201.5727 0056153 53.0201 307.6100 14.36126259621465

Live tracking on map

Real-time ground track for satellite FENGYUN 1C DEB.

In-orbit conjunctions

A list of the most updated potential collisions computed for object FENGYUN 1C DEB.

Target Orbit TCA Probability of collision Miss distance Type
CZ-4 DEB SSO 2025-07-27 10:43:59 0.000137357 414.0 (m) DEBRIS
ARIANE 1 DEB SSO 2025-05-15 22:17:51 0.0001387668 224.0 (m) DEBRIS
CZ-6A DEB LEO 2024-11-26 08:23:39 0.0001802533 353.0 (m) DEBRIS
TRIAD 1 SSO 2024-08-30 19:04:44 0.000148467 875.0 (m) PAYLOAD

Associated space launch

Chinese polar orbiting meteorological satellite

FENGYUN 1C DEB was lifted into orbit during the mission ‘Long March 4B | Feng Yun 1C’, on board a Long March 4B space rocket.

The launch took place on May 10, 1999, 1:33 a.m. from Launch Complex 7.

For more information about the launch, click the button.

Launch to space Long March 4B | Feng Yun 1C
Long March 4B | Feng Yun 1C

Agency: N/A

Status: Launch Successful

Launch date: May 10, 1999, 1:33 a.m. UTC

Rocket: Long March 4B

Launch pad: Launch Complex 7

Location: Taiyuan Satellite Launch Center, People's Republic of China

...

Latest news about this satellite

There are no fresh news available about this satellite. Check back as we update our databases every day.


Newsletter sign-up

Weekly statistics, charts and insights to help you stay on top of the space industry.